Showing default

ESEO, 43792

Orbit data source: Space-Track

ESEO, 43792 is a payload satellite owned by ESA (ESA) in SSO that was launched on Mon, 03 Dec 2018 UTC via an FALCON 9 launch vehicle from the Air Force Western Test Range (AFWTR). Payload-class satellites include a variety of spacecraft equipped with specific instruments for various scientific and technological missions. These include communications satellites like Starlink; space stations such as the ISS; scientific satellites like the Hubble; Earth observation satellites from companies like Planet Labs, Umbra, and HawkEye 360; GPS; miniature CubeSats for education and research; and military/defense satellites.

Loading next visibility...
Identifier
43792, 2018-099AL
Orbit
SSO
Country
Flag of ESAESA
Related business
Manufacturer
ESTEC/OHBI
Mission
Operational Civil Technology
Bus & Motor
ESEO, Unknown motor
Mass
120 kg wet, 120 kg dry
Launch date (UTC)
2018-12-03 (7 years ago)
Launch vehicle
FALCON 9
Launch site
Air Force Western Test Range (AFWTR)
Object type
Payload
Rocket body
Debris
Shape & HBR
Box, 0.3 m
Radar Cross Section
0.262 m², Medium (>0.1 m² and < 1m²)

Expand to show TLE details & history
Last TLE update: 17 hours ago

TLE from 17 hours ago
0 ESEO
1 43792U 18099AL  25347.68002998  .00002879  00000-0  21533-3 0  9998
2 43792  97.4222  27.8258 0011187 244.6476 115.3592 15.03480580383921
Epoch: 2025-12-13T16:19Z
TLE epoch observation values (Epoch: 2025-12-13T16:19:14.590Z)
Latitude
-0.00002°
Longitude
60.41118°
Altitude
562.571 km
Speed
7.578 km/s
True Right ascension
01h 51m 18s
True Declination
0° 00' 00"
Sunlit
Object was in full shadow at epoch
Visualization orbit readout
Latitude
Unknown
Longitude
Unknown
Altitude
Unknown
Speed
Unknown
Apparent Right ascension
Unknown
Apparent Declination
Unknown
Sunlit
N/A
Visualization observer readout
Local Sidereal Time
08:00:48
Azimuth
Unknown
Elevation
Unknown
Doppler factor
Unknown
Orbital elements
Apogee altitude
560.916 km
Perigee altitude
545.408 km
Semi-major axis
6,931.299 km
Eccentricity
0.00112
Inclination
97.4222°
RAAN
27.8258°
Arg. of periapsis
244.6476°
True anomaly
115.47497°
Mean anomaly
115.3592°
Eccentric anomaly
115.41709°
Mean motion
3.76115 °/min
Orbital period
95.72 mins
BSTAR
0.00021533
Loading maneuver chart data...
Computing Atmospheric mass density...
Loading historical data...
Loading historical data...
Loading historical data...
Loading historical data...
Loading historical data...
Loading historical data...
Loading historical data...

Documentation

Showing up to 5 results
|